Stations météo

Publicité
Logan Botanic Garden, Grande-Bretagne (99193): Température de l'air & dewpoint: 13.11.2017 19:00:00 - 19.11.2017 19:00:00 (GMT)Logan Botanic Garden, Grande-Bretagne (99193): Température de l'air -20cm: 13.11.2017 19:00:00 - 19.11.2017 19:00:00 (GMT)Logan Botanic Garden, Grande-Bretagne (99193): Quantités de précipitations: 13.11.2017 19:00:00 - 19.11.2017 19:00:00 (GMT)
Date & Time tt [°C] td [°C] tt -20cm [°C] rr [mm]
19.11.2017 19:00:00 8,9 5,9 - 0,0
19.11.2017 18:00:00 8,7 4,8 - 0,0
19.11.2017 17:00:00 8,7 3,9 - 0,0
19.11.2017 16:00:00 8,2 3,8 - 0,0
19.11.2017 15:00:00 8,3 2,2 - 0,0
19.11.2017 14:00:00 8,4 2,8 - 0,0
19.11.2017 13:00:00 7,9 3,0 - 0,0
19.11.2017 12:00:00 - - - 0,0
19.11.2017 11:00:00 6,8 4,3 - 0,0
19.11.2017 10:00:00 6,1 4,5 - 0,0
19.11.2017 09:00:00 5,2 3,1 8,7 0,0
19.11.2017 08:00:00 5,2 1,1 - 0,0
19.11.2017 07:00:00 5,8 0,9 - 0,0
19.11.2017 06:00:00 6,0 -0,1 - 0,0
19.11.2017 05:00:00 6,0 -0,2 - 0,0
19.11.2017 04:00:00 6,0 0,6 - 0,0
19.11.2017 03:00:00 5,5 0,5 - 0,0
19.11.2017 02:00:00 5,9 -0,1 - -
19.11.2017 01:00:00 5,9 0,6 - 0,0
19.11.2017 00:00:00 5,5 1,2 - 0,0
18.11.2017 23:00:00 5,4 0,8 - 0,0
18.11.2017 22:00:00 5,5 1,4 - 0,0
18.11.2017 21:00:00 6,0 1,5 - 0,0
18.11.2017 20:00:00 5,1 2,2 - 0,0
18.11.2017 19:00:00 5,7 2,7 - 0,0
18.11.2017 18:00:00 6,2 1,9 - 0,0
18.11.2017 17:00:00 6,5 2,5 - 0,0
18.11.2017 16:00:00 6,4 3,3 - 0,0
18.11.2017 15:00:00 6,8 4,5 - 0,2
18.11.2017 14:00:00 7,7 4,3 - 0,0
18.11.2017 13:00:00 7,7 4,1 - 0,0
18.11.2017 12:00:00 7,8 5,0 - 0,2
18.11.2017 11:00:00 7,3 4,4 - 0,2
18.11.2017 10:00:00 7,3 3,8 - 0,0
18.11.2017 09:00:00 7,5 4,9 8,7 0,6
18.11.2017 08:00:00 7,1 5,5 - 0,4
18.11.2017 07:00:00 8,6 5,3 - 0,0
18.11.2017 06:00:00 8,6 4,9 - 0,0
18.11.2017 05:00:00 8,3 5,1 - 0,0
18.11.2017 04:00:00 8,0 5,3 - 0,0
18.11.2017 03:00:00 7,9 5,4 - 0,0
18.11.2017 02:00:00 8,0 5,2 - 0,0
18.11.2017 01:00:00 8,0 5,3 - 0,0
18.11.2017 00:00:00 8,0 5,3 - 0,0
17.11.2017 23:00:00 7,3 5,1 - 0,0
17.11.2017 22:00:00 7,5 4,9 - 0,0
17.11.2017 21:00:00 7,8 4,8 - 0,0
17.11.2017 20:00:00 7,6 4,7 - 0,0
17.11.2017 19:00:00 7,8 4,7 - 0,0
17.11.2017 18:00:00 7,8 4,5 - 0,0
17.11.2017 17:00:00 7,5 4,3 - 0,0
17.11.2017 16:00:00 7,9 4,5 - 0,0
17.11.2017 15:00:00 8,0 4,3 - 0,0
17.11.2017 14:00:00 8,5 4,5 - 0,0
17.11.2017 13:00:00 7,9 4,3 - 0,0
17.11.2017 12:00:00 7,7 3,9 - 0,0
17.11.2017 11:00:00 7,7 4,1 - 0,0
17.11.2017 10:00:00 7,6 4,4 - 0,0
17.11.2017 09:00:00 7,0 4,3 9,2 0,0
17.11.2017 08:00:00 6,8 4,7 - 0,0
17.11.2017 07:00:00 6,8 4,7 - 0,0
17.11.2017 06:00:00 7,0 4,7 - 0,0
17.11.2017 05:00:00 6,4 4,1 - 0,0
17.11.2017 04:00:00 6,7 4,0 - 0,0
17.11.2017 03:00:00 6,5 3,4 - 0,0
17.11.2017 02:00:00 6,8 4,3 - 0,0
17.11.2017 01:00:00 6,9 3,6 - 0,0
17.11.2017 00:00:00 6,9 3,9 - 0,0
16.11.2017 23:00:00 6,9 3,7 - 0,0
16.11.2017 22:00:00 7,4 3,5 - 0,0
16.11.2017 21:00:00 7,6 2,8 - 0,0
16.11.2017 20:00:00 7,7 2,9 - 0,0
16.11.2017 19:00:00 7,5 2,5 - -
16.11.2017 18:00:00 7,6 2,6 - 0,0
16.11.2017 17:00:00 7,6 2,0 - -
16.11.2017 16:00:00 8,4 1,8 - 0,0
16.11.2017 15:00:00 8,7 2,0 - 0,0
16.11.2017 14:00:00 8,4 2,2 - 0,0
16.11.2017 13:00:00 9,3 1,6 - 0,0
16.11.2017 12:00:00 8,7 3,2 - 0,0
16.11.2017 11:00:00 8,7 2,4 - 0,0
16.11.2017 10:00:00 8,8 3,0 - 0,0
16.11.2017 09:00:00 8,3 2,3 9,4 0,0
16.11.2017 08:00:00 8,8 4,2 - 0,2
16.11.2017 07:00:00 9,7 6,3 - 0,0
16.11.2017 06:00:00 10,2 6,8 - 0,0
16.11.2017 05:00:00 11,1 8,8 - 0,0
16.11.2017 04:00:00 11,0 8,9 - 0,0
16.11.2017 03:00:00 11,2 9,1 - 0,0
16.11.2017 02:00:00 11,2 9,5 - 0,0
16.11.2017 01:00:00 11,2 9,4 - 0,0
16.11.2017 00:00:00 11,9 9,7 - 0,0
15.11.2017 23:00:00 11,7 9,2 - 0,0
15.11.2017 22:00:00 11,5 9,3 - 0,0
15.11.2017 21:00:00 11,0 8,7 - 0,0
15.11.2017 20:00:00 11,0 8,2 - 0,0
15.11.2017 19:00:00 10,8 7,5 - 0,0
15.11.2017 18:00:00 10,7 6,8 - 0,0
15.11.2017 17:00:00 10,5 7,5 - 0,0
15.11.2017 16:00:00 10,5 6,6 - 0,0
15.11.2017 15:00:00 10,3 8,1 - 0,0
15.11.2017 14:00:00 10,8 7,5 - 0,0
15.11.2017 13:00:00 10,9 7,3 - 0,0
15.11.2017 12:00:00 10,1 7,7 - 0,0
15.11.2017 11:00:00 9,0 8,5 - 0,0
15.11.2017 10:00:00 8,2 7,7 - 0,0
15.11.2017 09:00:00 7,7 7,1 9,2 0,0
15.11.2017 08:00:00 7,2 6,4 - 0,0
15.11.2017 07:00:00 7,8 6,8 - 0,0
15.11.2017 06:00:00 8,4 7,0 - 0,0
15.11.2017 05:00:00 8,6 6,8 - 0,0
15.11.2017 04:00:00 8,9 7,1 - 0,0
15.11.2017 03:00:00 - - - 0,0
15.11.2017 02:00:00 7,1 5,8 - -
15.11.2017 01:00:00 8,1 7,0 - 0,0
15.11.2017 00:00:00 8,7 7,5 - 0,0
14.11.2017 23:00:00 8,9 7,7 - 0,0
14.11.2017 22:00:00 8,5 7,7 - 0,0
14.11.2017 21:00:00 8,5 7,8 - 0,0
14.11.2017 20:00:00 9,1 8,5 - 0,0
14.11.2017 19:00:00 9,0 8,4 - 0,0
14.11.2017 18:00:00 9,2 8,8 - 0,2
14.11.2017 17:00:00 9,3 8,8 - -
14.11.2017 16:00:00 9,6 8,9 - 1,2
14.11.2017 15:00:00 9,9 8,8 - 0,2
14.11.2017 14:00:00 10,6 8,5 - 0,0
14.11.2017 13:00:00 10,7 8,1 - 0,0
14.11.2017 12:00:00 - - - 0,0
14.11.2017 11:00:00 10,9 9,0 - 0,0
14.11.2017 10:00:00 10,3 9,1 - 0,0
14.11.2017 09:00:00 - - - 0,0
14.11.2017 08:00:00 9,9 9,1 - 0,0
14.11.2017 07:00:00 10,1 9,4 - 0,0
14.11.2017 06:00:00 10,6 9,8 - 0,0
14.11.2017 05:00:00 11,9 10,5 - 0,0
14.11.2017 04:00:00 11,8 10,5 - -
14.11.2017 03:00:00 11,6 10,1 - 0,0
14.11.2017 02:00:00 11,3 10,1 - 0,0
14.11.2017 01:00:00 11,0 9,7 - 0,0
14.11.2017 00:00:00 10,8 9,3 - 0,0
13.11.2017 23:00:00 10,4 8,9 - 0,0
13.11.2017 22:00:00 10,0 8,4 - 0,0
13.11.2017 21:00:00 9,6 8,1 - 0,0
13.11.2017 20:00:00 9,3 7,6 - 0,0
13.11.2017 19:00:00 9,0 7,3 - 0,2

tt = Température de l'air
td = dewpoint
tt -20cm = Température de l'air -20cm
rr = Quantités de précipitations

stations d'obs. à proximité